Vertical_Velocity
1 0 -0 0 0 0 0 0 -0 -0 0 1 2 2 2 2 2 2 2 2 1 1 1 -1 -3 -6 -7 -5 -3 -2 -2 -3 -4 -4 -4 -4 -4 -5 -5 -5 -6 -6 -6 -6 -5 -5 -5 -5 -5 -5 -5 -5 -5 -6 -6 -6 -5 -4 -3 -2 -2 -2 -1 -1 -0 -0 -0 -1 -1
1 0 0 0 0 0 -0 -0 -1 -1 -1 -0 1 1 1 1 1 1 0 0 1 1 1 1 -0 -2 -3 -4 -2 -2 -2 -2 -2 -2 -2 -3 -3 -2 -2 -3 -4 -4 -4 -4 -5 -5 -5 -5 -5 -5 -5 -6 -6 -6 -7 -6 -5 -5 -5 -5 -4 -3 -3 -2 -2 -1 -1 -1 -1
1 1 1 1 1 1 0 -0 -0 -1 -1 -1 -0 -0 -0 -1 -1 -1 -1 -1 -0 -0 -0 -0 0 -0 -0 -1 -1 -1 -1 -1 -1 -1 -2 -2 -2 -1 -1 -1 -1 -2 -2 -3 -3 -4 -4 -4 -4 -4 -4 -5 -5 -6 -6 -6 -5 -5 -5 -4 -3 -3 -2 -2 -1 -1 -0 -0 -0
0 1 1 1 1 1 1 1 0 -0 -1 -0 -1 -1 -1 -1 -1 -2 -2 -2 -2 -2 -2 -1 -0 -0 0 0 -1 -1 -1 -0 -0 -0 -0 1 0 -0 -1 0 -0 -1 -1 -1 -2 -2 -2 -2 -3 -3 -2 -2 -4 -5 -5 -5 -4 -4 -4 -3 -2 -2 -2 -1 -0 -0 -0 -0 -0
-1 0 1 1 1 2 2 1 1 0 0 -0 -1 -1 -1 -1 -1 -1 -2 -2 -2 -2 -2 -1 -1 -1 -1 -0 -1 -1 -0 0 0 1 1 1 1 1 0 0 -0 -0 -0 -0 -0 -0 -0 1 1 0 -0 -1 -2 -2 -3 -3 -2 -0 1 2 0 -0 -0 0 0 0 0 0 0
-2 -1 -0 0 1 1 1 1 1 1 1 0 -0 -1 -1 -1 -1 -1 -1 -1 -1 -0 -0 -1 -2 -1 -1 -1 -1 -1 -1 -0 0 1 1 1 1 1 0 -0 0 0 0 0 0 0 1 1 3 4 5 3 1 -1 -2 -1 -1 1 4 4 2 2 2 2 2 2 2 2 2
-2 -2 -1 -1 -0 -0 0 1 1 1 1 0 -0 -0 -0 -0 -1 -1 -1 -0 -0 -0 -1 -1 -0 -0 -0 -0 -0 -1 -1 -1 -0 -0 -0 0 0 0 0 0 0 0 0 0 1 1 1 0 1 3 6 7 4 1 -0 -0 -1 -0 1 1 1 2 2 2 2 3 2 2 2
-1 -1 -1 -1 -1 -1 -1 -0 -0 -0 -0 -0 0 1 1 0 -0 -0 0 -0 -1 -1 -0 0 1 1 1 1 1 0 -0 -1 -1 -1 -1 -0 -0 -0 -0 -0 -0 -0 -0 0 0 -0 0 1 0 1 2 5 4 3 2 1 1 1 1 0 1 1 1 1 2 2 2 2 2
-1 -1 -1 -1 -1 -1 -1 -0 -0 -1 -0 -0 0 0 1 1 1 1 1 -0 -0 0 0 -0 -0 0 1 1 1 2 2 1 0 -0 -0 -0 -1 -1 -1 -1 -1 -1 -1 -1 -1 -1 -1 -0 0 0 1 1 1 2 2 2 2 2 2 2 1 1 1 2 3 2 2 2 2
-0 -0 -1 -1 -1 -0 -0 -0 -1 -1 -1 -1 -1 -0 0 1 1 1 1 1 1 1 -0 -1 -0 0 0 1 2 2 2 2 2 1 0 -0 -0 0 2 5 4 2 -0 -2 -3 -2 -1 -1 -1 -0 0 0 0 0 1 1 1 2 2 2 2 1 2 2 3 3 3 3 2
-1 -1 -1 -1 -1 -1 -1 -1 -1 -1 -1 -1 -1 -1 -0 -0 1 1 2 2 1 0 -0 1 1 0 -0 0 1 2 2 3 3 2 2 1 0 1 3 8 11 9 5 -1 -3 -3 -2 -1 -1 -1 -1 -1 -1 -0 0 1 1 1 2 2 2 2 2 2 3 3 3 2 2
-0 -0 -1 -1 -1 -1 -1 -1 -1 -1 -1 -2 -2 -1 -1 -0 0 1 1 2 1 0 1 2 0 -0 -0 0 -0 0 1 2 2 3 2 2 1 1 1 3 8 8 6 1 -2 -2 -2 -1 -1 -1 -1 -1 -1 -1 -0 0 1 1 1 2 2 2 2 2 3 2 2 2 2
2 1 -0 -1 -1 -1 -1 -1 -1 -1 -1 -1 -1 -1 -1 -0 0 1 1 0 0 1 1 1 -0 -0 -0 -0 -1 -1 -0 1 1 2 2 2 2 1 -0 -0 1 2 2 0 -1 -1 -1 -1 -1 -1 -2 -2 -1 -1 -1 -0 0 1 1 2 2 1 1 1 1 1 1 2 2
4 3 2 1 0 -0 -1 -1 -1 -1 -1 -1 -1 -0 -0 -0 0 0 0 -0 0 0 0 -0 -0 -0 -0 -0 -1 -1 -0 0 1 1 1 2 1 1 -0 -1 -1 -1 -0 -0 0 -0 -0 -0 -0 -1 -1 -1 -1 -1 -1 -0 -0 0 1 1 1 1 1 1 -0 -1 -0 1 1
4 4 3 3 2 1 0 -0 -1 -1 -1 -1 -1 -0 0 0 1 1 1 0 0 0 -0 -0 -0 -0 0 -0 -1 -0 0 1 1 1 1 1 1 0 -0 -0 -0 -0 -0 0 1 1 0 1 0 0 -0 -1 -1 -0 -0 -0 -0 0 0 1 0 1 3 5 2 0 -1 -0 0
3 4 4 4 3 2 2 1 -0 -1 -1 -2 -1 -1 -0 -0 1 1 2 1 1 1 1 0 0 1 1 -0 -0 0 0 0 1 0 0 0 -0 -0 -0 -0 -0 -0 0 1 1 1 1 1 1 1 0 0 0 0 0 0 0 1 1 0 0 1 3 5 5 3 1 0 0
4 3 3 4 4 4 3 2 1 -0 -1 -1 -1 -1 -1 -1 0 1 1 1 2 2 1 1 1 1 1 -1 -0 0 0 -0 0 1 1 0 0 -0 -0 -0 -0 -0 0 0 1 1 1 1 1 1 1 1 1 1 1 0 1 2 2 1 0 0 1 2 3 4 5 5 4
3 3 3 4 4 4 4 3 2 1 1 -0 -0 -1 -1 -1 -0 -0 -0 1 2 2 1 1 2 1 0 -1 -0 0 0 -0 0 1 1 1 1 0 0 -0 -0 -0 -0 0 1 1 1 1 1 1 1 2 2 1 1 1 1 2 3 2 1 0 0 0 0 1 3 6 6
1 2 2 3 4 4 4 4 4 4 3 2 1 0 -0 -0 -0 -1 -0 0 1 1 1 1 1 1 0 0 0 1 0 0 1 1 1 1 1 1 1 1 1 0 0 0 1 1 1 0 0 1 1 1 1 1 1 1 1 1 2 1 0 0 1 0 -1 -1 -0 1 2
0 1 1 2 4 4 4 5 5 5 5 4 3 2 1 0 0 0 -0 -1 -0 0 0 -0 0 0 0 1 1 1 1 1 1 1 0 0 1 1 1 1 1 1 1 2 2 2 2 1 0 0 0 1 1 1 1 1 1 1 1 1 1 1 1 0 -0 -1 -1 -1 -1
-0 -0 0 1 3 3 4 4 5 6 6 5 5 4 3 2 1 1 -0 -1 -0 -0 -1 -1 -1 -0 -0 1 1 1 1 1 2 1 -0 -0 -1 -1 -0 1 0 1 2 3 3 3 3 2 1 1 0 0 -0 -0 -0 0 0 0 0 1 1 1 1 1 0 -0 -1 -1 -1
-0 -0 0 1 1 2 2 3 4 5 5 6 6 5 4 3 2 1 1 0 -0 -1 -2 -2 -1 -1 -1 -0 1 1 1 2 2 1 -0 -0 -1 -1 -1 -0 -0 1 2 4 4 4 3 3 2 1 1 1 0 -0 -0 -0 -1 -1 -0 0 0 0 1 1 0 0 -0 -0 -1
-0 -0 -0 -0 0 1 1 1 2 3 4 5 6 6 6 5 3 2 2 1 0 -1 -1 -1 -1 -1 -1 -1 0 1 1 1 1 0 0 1 -0 -1 -0 0 0 1 2 4 4 4 3 3 2 2 1 1 0 0 -0 -1 -1 -1 -1 -1 -1 -0 -0 0 0 0 0 0 0
1 0 0 0 1 1 0 0 1 1 2 3 4 5 6 6 5 4 4 2 1 1 0 0 -0 -0 -1 -1 -0 0 0 0 0 1 1 1 1 0 0 1 1 1 2 3 3 3 2 2 2 2 1 1 1 1 0 -0 -1 -1 -1 -1 -1 -1 -1 -1 -0 0 0 0 1
0 0 1 1 2 1 1 1 0 0 0 1 2 3 4 5 5 5 4 3 2 2 2 2 1 0 0 0 -0 -0 -0 -0 0 1 1 1 1 1 1 1 1 1 2 3 2 1 1 1 1 1 1 1 1 1 1 1 0 0 -0 -1 -1 -2 -2 -1 -0 0 0 1 1
0 1 1 1 2 3 3 2 2 1 0 -0 0 0 1 2 3 4 3 3 2 2 2 2 2 2 2 1 1 0 0 -0 1 1 1 1 1 1 1 1 1 1 2 2 1 1 0 1 1 1 1 1 2 3 3 2 2 1 0 -1 -1 -2 -1 -1 -0 0 1 0 0
1 0 -0 1 3 3 3 3 4 3 2 1 1 -0 -0 1 1 1 1 1 1 2 2 1 1 2 2 2 2 2 1 1 2 1 1 -0 0 0 0 1 1 1 1 1 0 0 0 1 1 1 1 2 3 3 4 3 3 2 1 -0 -1 -1 -1 -0 0 1 1 -0 -0
1 0 0 2 2 2 3 4 4 3 3 3 2 1 1 1 0 -0 -0 0 1 1 0 -0 -0 1 2 2 2 2 2 3 2 2 1 0 -0 -0 -0 -0 1 1 1 1 0 -0 0 0 0 0 1 1 2 3 3 4 4 3 2 1 1 1 1 -0 0 1 0 -0 -0
1 1 1 2 2 2 3 4 3 3 3 4 3 2 2 1 0 0 1 1 1 0 -1 -1 0 1 1 -0 -0 1 2 2 1 1 1 1 1 0 0 0 0 1 1 1 0 -0 -0 0 -0 -0 -0 -0 0 1 2 3 3 4 4 3 3 3 2 1 1 1 0 -0 -0
2 1 1 1 2 2 3 2 2 3 4 3 3 2 2 2 2 2 2 2 1 0 0 1 2 1 -0 -2 0 1 1 -1 -0 0 1 1 1 1 1 1 1 1 2 2 1 0 -0 -0 -1 -1 -2 -2 -2 -1 -0 1 2 3 4 4 5 5 4 3 2 1 1 0 0
2 2 1 1 2 2 2 2 2 3 2 2 3 3 3 3 2 2 1 1 -0 0 1 2 1 0 0 2 3 1 -0 -1 -0 -0 -1 -0 0 1 1 1 1 2 2 3 2 1 0 -0 -1 -2 -3 -3 -3 -3 -2 -1 0 1 2 4 5 6 6 5 4 3 2 1 1
2 2 2 2 1 1 1 2 2 2 2 2 2 2 3 3 2 2 1 1 -0 -0 0 1 1 1 3 5 4 2 1 1 1 -0 -1 -1 -1 -1 -1 0 1 2 3 4 2 2 1 0 -1 -1 -2 -3 -4 -4 -4 -2 -1 -1 0 2 4 5 6 6 6 5 4 3 2
2 2 3 2 2 2 2 2 1 1 2 2 2 2 2 1 2 2 1 0 0 -0 -0 -1 1 2 3 5 4 2 2 3 2 1 0 -0 -1 -2 -1 -1 0 2 3 4 2 2 2 2 1 -0 -1 -3 -3 -4 -4 -2 -2 -1 -0 0 2 3 4 5 6 6 5 4 3
2 2 2 2 2 3 2 2 2 2 2 2 1 2 2 2 1 0 -0 -1 -0 -0 -1 -1 -0 0 0 2 2 2 2 2 3 2 1 -0 -0 -0 -0 -0 1 3 4 3 1 1 2 2 2 1 -0 -2 -3 -3 -3 -2 -1 -0 0 0 1 2 2 3 4 4 5 5 4
2 2 1 1 3 3 3 3 3 3 3 2 2 2 3 2 1 0 -1 -1 -1 -2 -3 -2 -1 -1 -1 -1 -0 -0 0 1 2 1 0 0 1 1 1 1 3 4 4 2 0 0 1 1 1 1 -0 -1 -2 -2 -2 -1 -1 0 1 1 1 1 1 1 2 3 3 4 4
3 2 1 2 3 3 3 4 4 5 4 3 3 3 3 2 2 1 1 1 -1 -4 -4 -3 -1 -2 -3 -3 -2 -1 -1 -1 -1 -1 -1 -1 0 0 0 2 4 4 4 2 1 1 1 0 0 -0 -1 -2 -2 -2 -1 -1 -1 0 1 2 1 0 0 1 1 1 2 2 3
2 2 2 2 3 3 3 4 5 5 4 4 5 4 3 2 2 2 2 3 0 -2 -2 1 -0 -2 -4 -3 -2 -2 -2 -2 -2 -3 -4 -3 -2 -1 -1 1 2 2 2 2 1 1 2 1 -0 -1 -2 -2 -3 -3 -2 -1 -1 0 1 2 1 1 1 0 -0 -0 1 1 2
2 2 2 2 2 3 3 4 4 4 4 5 6 5 3 3 2 1 1 2 1 0 1 4 1 -1 -2 -0 -1 -3 -3 -1 -2 -3 -4 -3 -3 -2 -2 -1 -0 0 0 1 0 1 2 2 0 -1 -2 -2 -4 -3 -3 -2 -2 -1 1 2 2 2 2 0 -1 -1 0 1 2
2 2 2 2 2 2 3 4 3 4 5 6 6 4 4 4 1 -0 -0 1 -1 0 2 4 2 1 1 2 -1 -3 -3 -2 -2 -2 -2 -2 -2 -1 -1 -2 -2 -1 0 -0 -1 -0 1 2 1 -0 -1 -2 -4 -4 -3 -3 -3 -2 -1 2 3 4 3 2 0 -0 -0 1 2
1 1 1 1 1 2 3 3 3 4 5 6 5 4 4 4 2 1 -0 -0 -3 -2 -0 3 2 2 3 3 -1 -2 -2 -1 -1 -1 -2 -1 -1 -0 -1 -3 -2 -0 1 -0 -2 -1 0 1 1 -0 -1 -2 -3 -3 -3 -4 -4 -4 -2 1 4 4 4 3 2 0 -1 -0 2
-0 -1 -1 -1 0 1 2 2 2 4 5 5 4 4 5 6 4 2 0 -1 -4 -4 -2 0 1 2 3 2 -0 -1 -0 0 -0 -1 -1 -2 -1 -1 -1 -2 -1 0 1 0 -1 -1 -1 0 -0 -1 -1 -2 -3 -3 -4 -4 -5 -4 -3 1 3 4 4 3 2 1 -1 -1 0
Height
5664 5664 5664 5665 5665 5665 5665 5666 5666 5667 5667 5668 5668 5669 5669 5670 5670 5671 5672 5672 5673 5674 5675 5676 5676 5676 5676 5677 5678 5679 5680 5681 5682 5682 5683 5684 5684 5685 5685 5686 5687 5688 5689 5690 5691 5693 5694 5695 5696 5697 5698 5699 5700 5701 5702 5702 5703 5703 5704 5705 5705 5706 5706 5707 5708 5709 5710 5711 5712
5663 5663 5663 5662 5662 5663 5663 5663 5664 5664 5664 5665 5665 5665 5666 5667 5667 5668 5668 5669 5670 5670 5671 5671 5672 5673 5673 5673 5674 5675 5676 5677 5678 5679 5679 5680 5680 5682 5683 5684 5684 5684 5685 5686 5687 5688 5689 5690 5691 5692 5693 5694 5695 5696 5697 5698 5699 5700 5700 5700 5701 5702 5703 5704 5704 5705 5706 5707 5708
5661 5661 5661 5661 5661 5661 5661 5661 5661 5661 5661 5661 5662 5662 5663 5664 5664 5665 5665 5666 5666 5667 5668 5668 5668 5669 5669 5670 5670 5671 5672 5673 5674 5675 5675 5676 5676 5677 5679 5680 5680 5680 5681 5682 5683 5684 5685 5685 5686 5687 5688 5689 5690 5691 5692 5693 5694 5695 5695 5696 5697 5698 5699 5699 5700 5701 5702 5703 5704
5659 5659 5659 5659 5659 5659 5659 5659 5659 5659 5659 5659 5659 5659 5660 5660 5661 5662 5662 5663 5664 5664 5665 5665 5665 5665 5666 5666 5667 5668 5668 5669 5670 5671 5672 5673 5674 5674 5674 5675 5676 5676 5677 5678 5679 5680 5681 5682 5683 5684 5684 5685 5686 5687 5688 5688 5690 5690 5691 5692 5693 5694 5695 5695 5696 5697 5698 5698 5699
5656 5656 5657 5657 5657 5657 5657 5657 5657 5657 5656 5656 5656 5656 5657 5657 5658 5658 5659 5660 5660 5661 5661 5662 5662 5663 5663 5663 5664 5665 5665 5666 5666 5667 5668 5669 5670 5670 5670 5671 5671 5672 5673 5674 5675 5676 5677 5679 5680 5681 5681 5681 5682 5683 5684 5685 5686 5687 5688 5689 5690 5690 5690 5691 5692 5693 5694 5695 5695
5654 5654 5654 5654 5654 5654 5654 5654 5654 5654 5654 5654 5654 5654 5654 5654 5655 5655 5656 5656 5657 5657 5658 5658 5659 5659 5660 5660 5660 5661 5662 5662 5663 5664 5664 5665 5665 5666 5666 5667 5667 5668 5669 5670 5671 5672 5673 5675 5677 5678 5679 5679 5679 5679 5679 5680 5682 5683 5685 5685 5686 5687 5687 5688 5689 5689 5690 5691 5691
5651 5651 5651 5651 5651 5651 5651 5651 5651 5651 5651 5651 5651 5651 5651 5651 5652 5652 5653 5653 5654 5654 5655 5655 5655 5656 5656 5657 5657 5658 5658 5659 5660 5660 5661 5661 5662 5662 5663 5663 5664 5665 5665 5666 5667 5668 5669 5670 5672 5674 5675 5676 5675 5675 5675 5676 5677 5678 5679 5680 5681 5682 5683 5684 5684 5685 5686 5687 5687
5648 5648 5648 5648 5648 5648 5648 5648 5648 5648 5648 5649 5649 5649 5649 5649 5649 5649 5650 5650 5650 5651 5651 5652 5653 5653 5653 5653 5654 5654 5655 5655 5656 5657 5657 5658 5659 5659 5659 5660 5660 5661 5661 5662 5663 5664 5665 5666 5667 5669 5670 5671 5672 5672 5672 5673 5674 5675 5675 5676 5676 5677 5678 5679 5680 5680 5681 5682 5683
5644 5644 5645 5645 5645 5645 5645 5645 5645 5645 5645 5645 5645 5645 5646 5646 5646 5646 5646 5647 5647 5647 5648 5649 5649 5650 5650 5650 5651 5651 5651 5652 5652 5653 5654 5655 5655 5655 5655 5655 5655 5656 5657 5658 5659 5660 5661 5662 5663 5664 5665 5666 5667 5668 5669 5669 5670 5671 5671 5672 5672 5673 5674 5675 5675 5676 5677 5678 5679
5640 5640 5641 5641 5641 5642 5642 5642 5642 5642 5642 5642 5642 5642 5643 5643 5643 5643 5643 5643 5644 5644 5645 5645 5645 5646 5646 5647 5647 5648 5648 5648 5649 5649 5650 5651 5652 5652 5652 5653 5652 5652 5652 5654 5655 5656 5658 5658 5659 5660 5660 5661 5662 5663 5664 5665 5666 5667 5667 5668 5669 5669 5670 5670 5671 5672 5673 5674 5675
5636 5636 5636 5637 5637 5638 5638 5638 5639 5639 5639 5639 5639 5639 5639 5639 5639 5640 5640 5640 5640 5640 5641 5641 5642 5642 5643 5643 5644 5644 5645 5645 5645 5646 5646 5647 5648 5649 5650 5651 5651 5650 5649 5649 5651 5653 5654 5655 5655 5656 5656 5657 5658 5659 5660 5660 5661 5662 5663 5664 5664 5665 5666 5666 5667 5668 5669 5670 5670
5632 5632 5632 5632 5633 5633 5634 5634 5635 5635 5635 5635 5635 5635 5635 5635 5636 5636 5636 5636 5636 5637 5637 5637 5638 5639 5639 5640 5640 5641 5641 5642 5642 5642 5643 5644 5644 5645 5646 5647 5648 5647 5647 5646 5647 5649 5650 5650 5651 5652 5652 5653 5654 5654 5655 5656 5657 5658 5659 5659 5660 5661 5662 5662 5663 5664 5665 5666 5666
5628 5628 5628 5628 5628 5629 5629 5630 5630 5630 5631 5631 5631 5631 5632 5632 5632 5632 5632 5632 5632 5632 5633 5633 5634 5634 5635 5635 5636 5637 5637 5638 5639 5639 5640 5640 5640 5641 5642 5643 5644 5644 5644 5644 5644 5645 5646 5646 5647 5648 5648 5649 5650 5650 5651 5652 5653 5654 5654 5655 5656 5657 5658 5658 5659 5660 5661 5662 5663
5625 5624 5624 5624 5624 5624 5624 5625 5625 5626 5626 5627 5627 5627 5628 5628 5628 5628 5628 5628 5628 5628 5629 5629 5630 5630 5630 5631 5632 5632 5633 5634 5635 5635 5636 5636 5637 5637 5638 5639 5640 5640 5640 5640 5641 5641 5642 5642 5643 5644 5644 5645 5646 5646 5647 5648 5649 5650 5650 5651 5652 5653 5654 5655 5655 5656 5657 5658 5659
5620 5620 5620 5620 5619 5619 5620 5620 5620 5620 5621 5622 5622 5623 5623 5624 5624 5624 5624 5624 5624 5625 5625 5625 5625 5625 5626 5626 5627 5628 5629 5629 5630 5631 5631 5632 5633 5633 5634 5635 5635 5636 5636 5637 5637 5638 5638 5639 5639 5640 5641 5641 5642 5643 5643 5644 5645 5645 5646 5647 5648 5649 5650 5650 5651 5652 5653 5654 5655
5615 5615 5615 5615 5615 5615 5615 5615 5615 5615 5616 5616 5617 5618 5619 5619 5619 5620 5620 5620 5620 5621 5621 5621 5621 5621 5622 5622 5623 5624 5624 5625 5625 5626 5627 5628 5628 5629 5630 5630 5631 5632 5632 5633 5634 5634 5635 5635 5636 5636 5637 5638 5638 5639 5640 5640 5641 5642 5643 5643 5644 5645 5645 5646 5647 5648 5650 5650 5651
5610 5610 5610 5610 5610 5610 5610 5610 5610 5610 5610 5611 5611 5612 5613 5614 5614 5615 5615 5616 5616 5616 5617 5617 5617 5617 5618 5618 5619 5619 5620 5620 5621 5622 5622 5623 5624 5625 5625 5626 5627 5627 5628 5629 5630 5630 5631 5631 5632 5633 5634 5634 5635 5635 5636 5637 5638 5639 5639 5640 5640 5641 5641 5642 5643 5645 5645 5646 5647
5605 5605 5605 5605 5605 5605 5605 5605 5605 5605 5605 5605 5606 5607 5607 5608 5609 5610 5610 5611 5611 5612 5612 5612 5613 5613 5614 5614 5614 5615 5615 5616 5617 5617 5618 5619 5620 5620 5621 5622 5622 5623 5624 5625 5626 5626 5627 5627 5628 5629 5630 5631 5631 5632 5633 5633 5634 5635 5635 5636 5637 5637 5638 5639 5639 5640 5641 5642 5643
5599 5599 5599 5600 5600 5600 5600 5600 5600 5600 5600 5600 5601 5601 5602 5602 5603 5604 5605 5605 5606 5607 5607 5608 5608 5609 5609 5609 5610 5610 5611 5612 5612 5613 5613 5614 5615 5616 5616 5617 5618 5619 5620 5620 5621 5622 5623 5623 5624 5625 5626 5627 5627 5628 5629 5630 5630 5631 5632 5632 5633 5634 5635 5635 5636 5636 5637 5638 5639
5592 5592 5593 5593 5594 5594 5595 5595 5595 5595 5595 5596 5596 5596 5596 5596 5597 5598 5599 5599 5600 5601 5602 5602 5603 5604 5604 5605 5605 5605 5606 5607 5607 5608 5609 5610 5610 5611 5612 5612 5613 5614 5615 5616 5617 5618 5618 5619 5620 5621 5621 5622 5623 5624 5625 5626 5626 5627 5628 5629 5629 5630 5631 5631 5632 5633 5634 5634 5635
5586 5586 5586 5587 5587 5588 5589 5589 5589 5590 5590 5590 5591 5591 5591 5591 5592 5592 5593 5593 5594 5595 5596 5597 5597 5598 5599 5600 5600 5601 5601 5602 5602 5603 5604 5604 5605 5606 5607 5608 5609 5610 5611 5612 5612 5613 5614 5614 5615 5616 5617 5618 5619 5620 5620 5621 5622 5623 5624 5625 5625 5626 5627 5628 5629 5629 5630 5630 5631
5580 5580 5580 5580 5580 5581 5582 5582 5583 5583 5584 5585 5585 5585 5585 5586 5586 5586 5587 5587 5588 5589 5590 5590 5591 5592 5593 5594 5595 5596 5596 5597 5597 5598 5598 5599 5600 5601 5602 5603 5604 5605 5606 5607 5607 5608 5609 5610 5610 5611 5612 5613 5614 5615 5616 5617 5618 5619 5620 5620 5621 5622 5623 5624 5625 5625 5626 5627 5627
5574 5573 5573 5573 5574 5574 5575 5575 5576 5577 5577 5578 5579 5579 5580 5580 5580 5581 5581 5581 5582 5583 5584 5584 5585 5586 5588 5589 5590 5590 5591 5591 5592 5593 5593 5594 5595 5596 5597 5598 5599 5600 5601 5602 5602 5603 5604 5605 5605 5606 5607 5608 5609 5610 5611 5612 5613 5614 5615 5615 5616 5617 5618 5619 5620 5621 5622 5622 5623
5568 5567 5567 5567 5567 5567 5568 5568 5569 5570 5570 5571 5572 5573 5574 5574 5575 5575 5576 5576 5577 5577 5578 5579 5580 5581 5582 5583 5584 5584 5585 5586 5586 5587 5588 5589 5590 5591 5592 5593 5594 5595 5596 5596 5597 5598 5599 5600 5600 5601 5602 5603 5604 5605 5606 5607 5608 5609 5610 5611 5612 5613 5614 5615 5615 5616 5617 5618 5619
5562 5561 5561 5561 5561 5561 5561 5562 5562 5563 5563 5564 5565 5566 5567 5567 5568 5569 5570 5570 5571 5572 5573 5573 5574 5575 5576 5577 5578 5578 5579 5580 5581 5582 5582 5583 5584 5585 5586 5588 5589 5590 5590 5591 5592 5593 5593 5594 5595 5596 5597 5598 5599 5600 5601 5602 5603 5604 5605 5606 5607 5608 5609 5610 5611 5612 5613 5613 5614
5555 5555 5555 5555 5555 5555 5555 5555 5556 5556 5557 5557 5558 5559 5560 5560 5561 5562 5563 5564 5565 5566 5567 5568 5569 5570 5570 5571 5572 5572 5573 5574 5575 5576 5577 5578 5579 5580 5581 5582 5583 5584 5585 5585 5586 5587 5588 5589 5590 5591 5592 5593 5594 5595 5596 5597 5598 5599 5600 5601 5602 5603 5605 5605 5606 5607 5608 5609 5610
5549 5548 5548 5548 5549 5549 5549 5550 5550 5550 5551 5551 5552 5553 5553 5554 5555 5555 5556 5557 5558 5559 5560 5562 5563 5564 5565 5566 5566 5567 5568 5569 5570 5570 5571 5572 5573 5574 5575 5576 5577 5578 5579 5580 5580 5581 5582 5583 5584 5585 5586 5588 5589 5590 5591 5592 5593 5595 5595 5596 5597 5599 5600 5601 5602 5602 5603 5604 5605
5542 5542 5541 5542 5542 5542 5543 5543 5544 5544 5545 5545 5546 5546 5547 5548 5549 5549 5550 5550 5551 5552 5553 5555 5556 5558 5559 5560 5561 5562 5562 5563 5564 5565 5565 5566 5567 5568 5569 5570 5571 5572 5573 5574 5575 5575 5576 5578 5579 5580 5581 5582 5583 5585 5586 5587 5589 5590 5591 5592 5593 5594 5595 5596 5597 5597 5598 5599 5600
5535 5535 5535 5535 5535 5536 5536 5537 5537 5538 5538 5539 5540 5540 5541 5542 5543 5543 5544 5545 5545 5546 5547 5548 5549 5551 5552 5554 5555 5555 5556 5557 5558 5559 5560 5561 5562 5563 5563 5564 5565 5566 5567 5568 5569 5570 5570 5572 5573 5574 5575 5576 5577 5579 5580 5582 5583 5585 5586 5587 5588 5589 5590 5591 5591 5592 5593 5594 5595
5528 5528 5528 5528 5528 5529 5530 5530 5531 5531 5532 5532 5533 5534 5535 5536 5536 5537 5538 5539 5540 5540 5541 5542 5543 5545 5546 5547 5548 5549 5550 5551 5552 5553 5555 5556 5557 5557 5558 5559 5560 5561 5562 5562 5563 5564 5565 5565 5566 5568 5569 5570 5571 5573 5574 5576 5577 5579 5580 5582 5583 5584 5585 5586 5586 5587 5588 5589 5590
5522 5521 5521 5521 5521 5522 5522 5523 5524 5525 5525 5526 5527 5527 5528 5529 5530 5531 5531 5532 5533 5534 5535 5536 5538 5539 5540 5540 5541 5543 5544 5545 5546 5547 5549 5550 5551 5552 5553 5554 5555 5555 5556 5557 5557 5558 5559 5560 5560 5561 5563 5564 5565 5567 5568 5570 5571 5573 5575 5576 5578 5579 5580 5581 5581 5582 5583 5584 5585
5516 5515 5515 5515 5515 5515 5515 5516 5517 5518 5518 5519 5520 5520 5521 5522 5523 5524 5525 5525 5526 5528 5529 5530 5531 5533 5534 5534 5535 5537 5538 5539 5540 5541 5542 5543 5545 5546 5547 5548 5550 5550 5551 5551 5552 5552 5553 5554 5555 5556 5557 5558 5559 5561 5562 5564 5565 5567 5568 5570 5572 5573 5574 5575 5576 5577 5578 5579 5580
5510 5510 5509 5509 5509 5509 5509 5509 5510 5511 5511 5512 5513 5513 5514 5515 5515 5517 5518 5519 5520 5521 5522 5524 5525 5526 5527 5528 5529 5530 5531 5532 5533 5534 5535 5537 5538 5540 5541 5543 5544 5545 5545 5545 5546 5547 5547 5548 5549 5550 5551 5552 5554 5555 5557 5558 5560 5561 5563 5564 5565 5567 5568 5570 5571 5572 5573 5574 5575
5504 5503 5503 5503 5503 5503 5503 5503 5504 5504 5505 5505 5506 5506 5507 5508 5509 5509 5510 5511 5513 5514 5515 5517 5518 5519 5520 5521 5523 5524 5525 5526 5527 5528 5529 5530 5532 5533 5535 5537 5538 5538 5539 5540 5540 5541 5542 5543 5543 5544 5545 5546 5548 5550 5551 5553 5555 5556 5557 5559 5560 5561 5562 5564 5565 5566 5567 5569 5570
5497 5497 5497 5497 5497 5497 5497 5498 5498 5498 5498 5499 5499 5499 5500 5501 5502 5502 5503 5504 5505 5507 5508 5510 5511 5512 5513 5514 5515 5517 5518 5519 5520 5521 5523 5524 5525 5527 5529 5530 5531 5532 5533 5534 5534 5535 5536 5537 5538 5538 5539 5540 5542 5544 5546 5548 5549 5551 5552 5553 5554 5555 5556 5558 5559 5560 5562 5563 5564
5490 5491 5491 5491 5491 5491 5491 5492 5492 5492 5492 5492 5492 5493 5493 5494 5495 5495 5496 5497 5498 5500 5501 5502 5504 5505 5506 5508 5509 5510 5511 5512 5513 5515 5516 5517 5519 5521 5522 5524 5525 5525 5526 5527 5528 5529 5530 5531 5532 5532 5533 5535 5536 5538 5540 5542 5543 5545 5546 5548 5549 5550 5551 5552 5553 5554 5556 5557 5559
5484 5484 5485 5485 5485 5485 5485 5485 5485 5486 5486 5486 5486 5486 5487 5487 5488 5489 5490 5491 5492 5494 5495 5495 5497 5498 5499 5500 5501 5503 5504 5505 5506 5507 5509 5510 5512 5514 5515 5516 5517 5519 5520 5521 5522 5523 5524 5525 5525 5526 5527 5529 5530 5532 5534 5535 5537 5539 5541 5542 5544 5545 5545 5546 5547 5549 5550 5552 5553
5477 5477 5478 5478 5478 5479 5479 5479 5479 5479 5479 5479 5480 5480 5480 5480 5481 5481 5482 5484 5486 5487 5488 5490 5491 5492 5493 5493 5495 5496 5497 5498 5500 5501 5502 5503 5505 5506 5507 5509 5510 5511 5512 5514 5515 5516 5517 5518 5519 5520 5521 5523 5525 5526 5528 5530 5531 5533 5535 5537 5538 5539 5540 5540 5542 5543 5545 5546 5548
5470 5470 5470 5471 5471 5471 5472 5472 5472 5473 5473 5473 5473 5473 5474 5474 5474 5474 5475 5476 5478 5480 5482 5483 5485 5486 5486 5487 5488 5490 5491 5492 5493 5494 5495 5496 5497 5498 5500 5501 5502 5504 5505 5506 5508 5509 5510 5511 5513 5514 5515 5516 5518 5520 5521 5524 5525 5527 5529 5531 5532 5533 5534 5535 5536 5537 5539 5540 5542
5462 5462 5463 5463 5464 5464 5465 5465 5465 5466 5466 5466 5466 5467 5467 5467 5467 5467 5468 5469 5470 5472 5474 5476 5478 5479 5480 5481 5482 5484 5485 5486 5487 5488 5489 5490 5490 5491 5493 5494 5495 5496 5498 5499 5500 5502 5503 5504 5505 5507 5508 5510 5511 5513 5515 5517 5520 5521 5523 5525 5526 5528 5529 5530 5530 5532 5533 5535 5536
5455 5455 5455 5456 5456 5456 5457 5458 5458 5459 5459 5460 5460 5460 5460 5460 5460 5460 5461 5462 5463 5465 5467 5469 5471 5472 5474 5475 5476 5478 5479 5480 5482 5483 5483 5484 5485 5485 5486 5488 5489 5490 5491 5492 5493 5495 5496 5497 5498 5500 5501 5503 5505 5506 5509 5511 5513 5515 5517 5519 5520 5522 5523 5524 5525 5526 5527 5529 5530